STARLINK-1856 (47143 NORAD) Tracking and Keplerian Element Data
This shows tracking and keplerian element data for the satellite.
Feedback or suggestion? Click here.
Element | Value |
Catalog | 47143 |
Name | STARLINK-1856 |
Epoch Orbit | 1532 |
Epoch Day | 57.25002315 |
Epoch Year | 2021 |
RAAN | 260.3309 |
Inclination | 53.0491 |
Eccentricity | 0.0001398 |
Argument of Perigee | 87.2296 |
Mean Anonmoly | 139.3603 |
Mean Motion | 15.11349154 |
Decay Rate | -0.01056889 |
L1 | 1 47143U 20088X 21057.25002315 -.01056889 00000-0 -66849-1 0 9993 |
L2 | 2 47143 53.0491 260.3309 0001398 87.2296 139.3603 15.11349154 15321 |
Live tracking and technical data element details for STARLINK-1856 (NORAD 47143). STARLINK-1856 can be tracked NOW for your location showing map with azimuth and elevation plus other details from your city location.
Track the satellite on the map from your city or location and see movement details for azimuth, elevation, latitude, longitude, range, height, and movement on the map or in text.
IsCatalogInMostPopularTable: catalog: 47143, numindb: 32
Update: records affected: 1
GetName: 47143 STARLINK-1856
Hit Count: updated at: Sat, 27 Feb 2021 03:17:18 GMT